McCall, ID

2:25 PM MDT on May 28, 2017 (GMT -0600)
McCall

Weather History for KMYL - November, 2012

Change the Weather History Date:

Friday, November 30, 2012

  Actual Average Record
Temperature  
Mean Temperature 36 °F 22 °F  
Max Temperature 40 °F 30 °F 54 °F (1941)
Min Temperature 32 °F 14 °F -5 °F (2006)
Degree Days  
Heating Degree Days 29 43  
Month to date heating degree days 963 1096  
Since 1 July heating degree days 2052 2638  
Cooling Degree Days 0 0  
Month to date cooling degree days 0 0  
Year to date cooling degree days 172 25  
Moisture  
Dew Point 35 °F    
Average Humidity 93    
Maximum Humidity 100    
Minimum Humidity 85    
Precipitation  
Precipitation 1.55 in 0.08 in 1.55 in (2012)
Month to date precipitation 5.30 2.72  
Year to date precipitation 26.83 18.04  
Sea Level Pressure  
Sea Level Pressure 29.72 in    
Wind  
Wind Speed 5 mph (SSE)    
Max Wind Speed 18 mph    
Max Gust Speed 26 mph    
Visibility 6 miles    
Events Fog , Rain , Snow    
T = Trace of Precipitation, MM = Missing Value Source: NWS Daily Summary

Daily Weather History Graph

Daily Weather History Graph

Search for Another Location

Airport or City:

Trip Planner

Search our weather history database for the weather conditions in past years. The results will help you decide how hot, cold, wet, or windy it might be!

Date:

Astronomy

Nov. 30, 2012 Rise Set
Actual Time 8:01 AM MST 5:04 PM MST
Civil Twilight 7:28 AM MST 5:37 PM MST
Nautical Twilight 6:51 AM MST 6:14 PM MST
Astronomical Twilight 6:16 AM MST 6:49 PM MST
Moon 7:04 PM MST (11/30) 9:36 AM MST (11/30)
Length of Visible Light 10h 09m
Length of Day
9h 03m
Waning Gibbous, 96% of the Moon is Illuminated
Nov 30
Waning Gibbous
Dec 6
Last Quarter
Dec 13
New
Dec 19
First Quarter
Dec 28
Full

Hourly Weather History & Observations

Time (MST) Temp. Windchill Dew Point Humidity Pressure Visibility Wind Dir Wind Speed Gust Speed Precip Events Conditions
12:26 AM 39.2 °F 32.5 °F 35.6 °F 87% 29.80 in 10.0 mi ESE 10.4 mph 19.6 mph 0.01 in Rain Light Rain
12:51 AM 39.0 °F 34.0 °F 35.1 °F 86% 29.78 in 10.0 mi ESE 6.9 mph - 0.01 in Rain Light Rain
1:51 AM 37.9 °F 34.4 °F 35.1 °F 89% 29.75 in 8.0 mi South 4.6 mph - 0.04 in Rain Light Rain
2:51 AM 37.0 °F - 36.0 °F 96% 29.73 in 8.0 mi Calm Calm - 0.03 in Rain Light Rain
3:45 AM 39.2 °F 32.0 °F 35.6 °F 87% 29.72 in 6.0 mi SSE 11.5 mph 19.6 mph 0.06 in Rain Rain
3:51 AM 39.9 °F 33.4 °F 36.0 °F 86% 29.72 in 5.0 mi SSE 10.4 mph - 0.07 in Rain Rain
4:34 AM 39.2 °F - 37.4 °F 93% 29.70 in - North - - 0.08 in   Unknown
4:51 AM - - - N/A% 29.69 in - North - - 0.08 in   Unknown
5:51 AM - - - N/A% 29.69 in - North - - N/A   Unknown
6:51 AM - - - N/A% 29.68 in - North - - N/A   Unknown
7:27 AM 37.4 °F 28.9 °F 35.6 °F 93% 29.68 in 5.0 mi SE 13.8 mph 21.9 mph 0.09 in Rain Rain
7:51 AM 37.9 °F 29.2 °F 36.0 °F 93% 29.69 in 4.0 mi SE 15.0 mph 23.0 mph 0.16 in Rain Rain
8:51 AM 37.0 °F 30.4 °F 36.0 °F 96% 29.69 in 5.0 mi SSE 9.2 mph - 0.17 in Rain Rain
9:12 AM 37.4 °F 31.4 °F 35.6 °F 93% 29.68 in 3.0 mi SSE 8.1 mph - 0.07 in Rain Rain
9:18 AM 37.4 °F 31.4 °F 35.6 °F 93% 29.68 in 3.0 mi SE 8.1 mph 18.4 mph 0.09 in Rain Rain
9:22 AM 37.4 °F 30.3 °F 35.6 °F 93% 29.68 in 3.0 mi SE 10.4 mph 18.4 mph 0.11 in Rain Rain
9:37 AM 37.4 °F 32.1 °F 35.6 °F 93% 29.69 in 4.0 mi SSE 6.9 mph - 0.14 in Rain Rain
9:51 AM 37.0 °F 31.6 °F 36.0 °F 96% 29.70 in 3.0 mi SSE 6.9 mph - 0.19 in Rain Rain
10:03 AM 37.4 °F 28.9 °F 35.6 °F 93% 29.70 in 3.0 mi SSE 13.8 mph 19.6 mph 0.05 in Rain Rain
10:14 AM 37.4 °F 30.8 °F 35.6 °F 93% 29.70 in 3.0 mi SE 9.2 mph - 0.10 in Rain Rain
10:49 AM 35.6 °F 28.6 °F 33.8 °F 93% 29.72 in 2.5 mi South 9.2 mph - 0.25 in Rain Heavy Rain
10:51 AM 35.1 °F 28.6 °F 33.1 °F 92% 29.73 in 2.5 mi SSW 8.1 mph - 0.26 in Rain Heavy Rain
11:01 AM 33.8 °F 29.6 °F 32.0 °F 93% 29.73 in 1.0 mi West 4.6 mph - 0.06 in Snow Light Snow
11:08 AM 32.0 °F 28.7 °F 30.2 °F 93% 29.74 in 0.5 mi WNW 3.5 mph - 0.10 in Fog , Snow Snow
11:35 AM 32.0 °F 27.5 °F 30.2 °F 93% 29.72 in 0.8 mi NE 4.6 mph - 0.22 in Snow Light Snow
11:51 AM 32.0 °F - 30.9 °F 96% 29.75 in 0.8 mi Calm Calm - 0.27 in Snow Light Snow
11:59 AM 33.8 °F - 32.0 °F 93% 29.73 in 1.0 mi Calm Calm - 0.02 in Snow Light Snow
12:06 PM 33.8 °F 30.8 °F 32.0 °F 93% 29.73 in 1.5 mi East 3.5 mph - 0.04 in Snow Light Snow
12:16 PM 33.8 °F 29.6 °F 30.2 °F 87% 29.72 in 3.0 mi ESE 4.6 mph - 0.05 in Snow Light Snow
12:51 PM 34.0 °F - 32.0 °F 92% 29.74 in 10.0 mi Calm Calm - 0.06 in   Overcast
1:51 PM 35.1 °F 30.1 °F 33.1 °F 92% 29.73 in 10.0 mi North 5.8 mph - N/A   Overcast
2:51 PM 36.0 °F 33.3 °F 34.0 °F 93% 29.74 in 10.0 mi North 3.5 mph - N/A   Overcast
3:51 PM 36.0 °F - 35.1 °F 97% 29.73 in 9.0 mi Calm Calm - N/A   Overcast
4:16 PM 35.6 °F - 33.8 °F 93% 29.71 in 1.5 mi Calm Calm - N/A   Overcast
4:27 PM 35.6 °F - 35.6 °F 100% 29.72 in 2.5 mi Calm Calm - N/A   Overcast
4:33 PM 35.6 °F - 35.6 °F 100% 29.72 in 4.0 mi Calm Calm - N/A   Overcast
4:39 PM 37.4 °F - 35.6 °F 93% 29.72 in 9.0 mi Calm Calm - N/A   Overcast
4:51 PM 37.9 °F 34.4 °F 35.1 °F 89% 29.72 in 10.0 mi SE 4.6 mph - N/A   Overcast
5:51 PM 37.0 °F 34.5 °F 35.1 °F 93% 29.72 in 9.0 mi NNW 3.5 mph - N/A   Overcast
6:00 PM 35.6 °F 32.8 °F 33.8 °F 93% 29.72 in 5.0 mi North 3.5 mph - N/A   Overcast
6:51 PM 37.0 °F - 35.1 °F 93% 29.72 in 10.0 mi Calm Calm - N/A   Overcast
7:03 PM 37.4 °F - 35.6 °F 93% 29.72 in 10.0 mi Calm Calm - N/A   Overcast
7:28 PM 37.4 °F - 35.6 °F 93% 29.73 in 10.0 mi Calm Calm - 0.00 in Rain Light Rain
7:51 PM 37.0 °F - 35.1 °F 93% 29.74 in 10.0 mi Calm Calm - 0.00 in   Overcast
8:16 PM 35.6 °F 32.8 °F 33.8 °F 93% 29.73 in 2.0 mi WSW 3.5 mph - 0.01 in Rain Rain
8:23 PM 35.6 °F - 35.6 °F 100% 29.73 in 1.8 mi Calm Calm - 0.06 in Rain Heavy Rain
8:32 PM 35.6 °F 32.8 °F 35.6 °F 100% 29.73 in 3.0 mi WSW 3.5 mph - 0.10 in Rain Rain
8:51 PM 36.0 °F 29.0 °F 35.1 °F 97% 29.76 in 5.0 mi SE 9.2 mph - 0.11 in Rain Light Rain
9:00 PM 37.4 °F 29.8 °F 35.6 °F 93% 29.74 in 5.0 mi SE 11.5 mph - 0.01 in Rain Rain
9:51 PM 36.0 °F - 35.1 °F 97% 29.76 in 10.0 mi Calm Calm - 0.05 in Rain Light Rain
10:51 PM 39.0 °F 32.8 °F 35.1 °F 86% 29.78 in 9.0 mi SSE 9.2 mph 18.4 mph 0.03 in Rain Light Rain
11:51 PM 39.0 °F 32.8 °F 35.1 °F 86% 29.79 in 10.0 mi SSE 9.2 mph - 0.02 in   Overcast